owner,sensor,date,latitude,longitude,vertical_datum,wind_speed,wind_to_direction,wind_speed_of_gust,qcFlag 
ADCP,ioos:station:wmo:42395:2,2017-05-01T00:20:00Z,26.4040,-90.7920,3.0,5.7,150.0,7.4, 
ADCP,ioos:station:wmo:42395:2,2017-05-01T00:40:00Z,26.4040,-90.7920,3.0,6.3,149.0,7.9, 
ADCP,ioos:station:wmo:42395:2,2017-05-01T01:00:00Z,26.4040,-90.7920,3.0,6.0,142.0,7.9, 
ADCP,ioos:station:wmo:42395:2,2017-05-01T01:20:00Z,26.4040,-90.7920,3.0,5.7,153.0,7.3, 
ADCP,ioos:station:wmo:42395:2,2017-05-01T01:40:00Z,26.4040,-90.7920,3.0,5.9,160.0,7.4, 
ADCP,ioos:station:wmo:42395:2,2017-05-01T02:00:00Z,26.4040,-90.7920,3.0,6.6,160.0,8.3, 
ADCP,ioos:station:wmo:42395:2,2017-05-01T02:20:00Z,26.4040,-90.7920,3.0,5.1,162.0,6.7, 
ADCP,ioos:station:wmo:42395:2,2017-05-01T02:40:00Z,26.4040,-90.7920,3.0,5.5,269.0,9.2, 
ADCP,ioos:station:wmo:42395:2,2017-05-01T03:20:00Z,26.4040,-90.7920,3.0,7.9,329.0,10.7, 
ADCP,ioos:station:wmo:42395:2,2017-05-01T03:40:00Z,26.4040,-90.7920,3.0,7.4,335.0,9.8, 
ADCP,ioos:station:wmo:42395:2,2017-05-01T04:20:00Z,26.4040,-90.7920,3.0,7.4,344.0,9.8, 
ADCP,ioos:station:wmo:42395:2,2017-05-01T04:40:00Z,26.4040,-90.7920,3.0,7.4,339.0,9.7, 
ADCP,ioos:station:wmo:42395:2,2017-05-01T05:00:00Z,26.4040,-90.7920,3.0,7.3,347.0,9.5, 
ADCP,ioos:station:wmo:42395:2,2017-05-01T05:20:00Z,26.4040,-90.7920,3.0,6.3,353.0,7.9, 
ADCP,ioos:station:wmo:42395:2,2017-05-01T05:40:00Z,26.4040,-90.7920,3.0,6.2,353.0,7.9, 
ADCP,ioos:station:wmo:42395:2,2017-05-01T06:20:00Z,26.4040,-90.7920,3.0,6.4,331.0,8.6, 
ADCP,ioos:station:wmo:42395:2,2017-05-01T06:40:00Z,26.4040,-90.7920,3.0,6.6,335.0,8.6, 
ADCP,ioos:station:wmo:42395:2,2017-05-01T07:20:00Z,26.4040,-90.7920,3.0,7.0,333.0,10.1, 
ADCP,ioos:station:wmo:42395:2,2017-05-01T07:40:00Z,26.4040,-90.7920,3.0,7.1,339.0,9.0, 
ADCP,ioos:station:wmo:42395:2,2017-05-01T08:00:00Z,26.4040,-90.7920,3.0,7.3,335.0,9.5, 
ADCP,ioos:station:wmo:42395:2,2017-05-01T08:20:00Z,26.4040,-90.7920,3.0,7.3,338.0,9.6, 
ADCP,ioos:station:wmo:42395:2,2017-05-01T08:40:00Z,26.4040,-90.7920,3.0,7.7,331.0,10.0, 
ADCP,ioos:station:wmo:42395:2,2017-05-01T09:20:00Z,26.4040,-90.7920,3.0,10.2,330.0,14.2, 
ADCP,ioos:station:wmo:42395:2,2017-05-01T09:40:00Z,26.4040,-90.7920,3.0,11.7,324.0,14.9, 
ADCP,ioos:station:wmo:42395:2,2017-05-01T10:20:00Z,26.4040,-90.7920,3.0,11.9,326.0,15.0, 
ADCP,ioos:station:wmo:42395:2,2017-05-01T10:40:00Z,26.4040,-90.7920,3.0,11.8,329.0,15.0, 
ADCP,ioos:station:wmo:42395:2,2017-05-01T11:20:00Z,26.4040,-90.7920,3.0,12.9,339.0,16.1, 
ADCP,ioos:station:wmo:42395:2,2017-05-01T11:40:00Z,26.4040,-90.7920,3.0,12.5,342.0,15.9, 
ADCP,ioos:station:wmo:42395:2,2017-05-01T12:00:00Z,26.4040,-90.7920,3.0,12.6,349.0,15.8, 
ADCP,ioos:station:wmo:42395:2,2017-05-01T12:20:00Z,26.4040,-90.7920,3.0,11.9,354.0,15.8, 
ADCP,ioos:station:wmo:42395:2,2017-05-01T12:40:00Z,26.4040,-90.7920,3.0,12.4,357.0,15.9, 
ADCP,ioos:station:wmo:42395:2,2017-05-01T13:20:00Z,26.4040,-90.7920,3.0,11.8,11.0,15.6, 
ADCP,ioos:station:wmo:42395:2,2017-05-01T14:00:00Z,26.4040,-90.7920,3.0,11.5,25.0,13.8, 
ADCP,ioos:station:wmo:42395:2,2017-05-01T14:20:00Z,26.4040,-90.7920,3.0,11.3,25.0,14.6, 
ADCP,ioos:station:wmo:42395:2,2017-05-01T14:40:00Z,26.4040,-90.7920,3.0,11.5,30.0,14.6, 
ADCP,ioos:station:wmo:42395:2,2017-05-01T15:20:00Z,26.4040,-90.7920,3.0,11.4,25.0,14.7, 
ADCP,ioos:station:wmo:42395:2,2017-05-01T15:40:00Z,26.4040,-90.7920,3.0,12.4,29.0,15.3, 
ADCP,ioos:station:wmo:42395:2,2017-05-01T16:00:00Z,26.4040,-90.7920,3.0,11.4,37.0,15.1, 
ADCP,ioos:station:wmo:42395:2,2017-05-01T16:20:00Z,26.4040,-90.7920,3.0,11.2,37.0,14.3, 
ADCP,ioos:station:wmo:42395:2,2017-05-01T16:40:00Z,26.4040,-90.7920,3.0,10.7,33.0,13.6, 
ADCP,ioos:station:wmo:42395:2,2017-05-01T17:00:00Z,26.4040,-90.7920,3.0,10.8,31.0,13.6, 
ADCP,ioos:station:wmo:42395:2,2017-05-01T17:20:00Z,26.4040,-90.7920,3.0,10.8,36.0,13.8, 
ADCP,ioos:station:wmo:42395:2,2017-05-01T17:40:00Z,26.4040,-90.7920,3.0,10.8,32.0,12.9, 
ADCP,ioos:station:wmo:42395:2,2017-05-01T18:00:00Z,26.4040,-90.7920,3.0,10.2,32.0,12.8, 
ADCP,ioos:station:wmo:42395:2,2017-05-01T18:20:00Z,26.4040,-90.7920,3.0,10.3,36.0,12.7, 
ADCP,ioos:station:wmo:42395:2,2017-05-01T18:40:00Z,26.4040,-90.7920,3.0,9.5,31.0,11.7, 
ADCP,ioos:station:wmo:42395:2,2017-05-01T19:20:00Z,26.4040,-90.7920,3.0,9.3,30.0,12.5, 
ADCP,ioos:station:wmo:42395:2,2017-05-01T19:40:00Z,26.4040,-90.7920,3.0,9.4,35.0,11.3, 
ADCP,ioos:station:wmo:42395:2,2017-05-01T20:20:00Z,26.4040,-90.7920,3.0,9.0,50.0,11.4, 
ADCP,ioos:station:wmo:42395:2,2017-05-01T20:40:00Z,26.4040,-90.7920,3.0,8.4,45.0,10.8, 
ADCP,ioos:station:wmo:42395:2,2017-05-01T21:00:00Z,26.4040,-90.7920,3.0,8.3,48.0,10.5, 
ADCP,ioos:station:wmo:42395:2,2017-05-01T21:20:00Z,26.4040,-90.7920,3.0,8.3,41.0,11.4, 
ADCP,ioos:station:wmo:42395:2,2017-05-01T21:40:00Z,26.4040,-90.7920,3.0,8.2,41.0,10.7, 
ADCP,ioos:station:wmo:42395:2,2017-05-01T22:00:00Z,26.4040,-90.7920,3.0,8.2,41.0,10.2, 
ADCP,ioos:station:wmo:42395:2,2017-05-01T22:20:00Z,26.4040,-90.7920,3.0,8.1,42.0,10.1, 
ADCP,ioos:station:wmo:42395:2,2017-05-01T22:40:00Z,26.4040,-90.7920,3.0,8.1,39.0,10.4, 
ADCP,ioos:station:wmo:42395:2,2017-05-01T23:00:00Z,26.4040,-90.7920,3.0,7.9,37.0,9.6, 
ADCP,ioos:station:wmo:42395:2,2017-05-01T23:20:00Z,26.4040,-90.7920,3.0,8.0,35.0,10.1, 
ADCP,ioos:station:wmo:42395:2,2017-05-01T23:40:00Z,26.4040,-90.7920,3.0,7.9,37.0,9.6, 
ADCP,ioos:station:wmo:42395:2,2017-05-02T00:20:00Z,26.4040,-90.7920,3.0,7.5,42.0,9.2, 
ADCP,ioos:station:wmo:42395:2,2017-05-02T00:40:00Z,26.4040,-90.7920,3.0,7.7,44.0,9.6, 
ADCP,ioos:station:wmo:42395:2,2017-05-02T01:20:00Z,26.4040,-90.7920,3.0,7.6,38.0,9.4, 
ADCP,ioos:station:wmo:42395:2,2017-05-02T01:40:00Z,26.4040,-90.7920,3.0,8.2,37.0,10.0, 
ADCP,ioos:station:wmo:42395:2,2017-05-02T02:20:00Z,26.4040,-90.7920,3.0,7.0,44.0,8.8, 
ADCP,ioos:station:wmo:42395:2,2017-05-02T02:40:00Z,26.4040,-90.7920,3.0,6.7,40.0,7.5, 
ADCP,ioos:station:wmo:42395:2,2017-05-02T03:00:00Z,26.4040,-90.7920,3.0,7.0,53.0,8.7, 
ADCP,ioos:station:wmo:42395:2,2017-05-02T03:20:00Z,26.4040,-90.7920,3.0,7.7,64.0,9.7, 
ADCP,ioos:station:wmo:42395:2,2017-05-02T03:40:00Z,26.4040,-90.7920,3.0,8.0,66.0,10.3, 
ADCP,ioos:station:wmo:42395:2,2017-05-02T04:00:00Z,26.4040,-90.7920,3.0,8.2,67.0,9.7, 
ADCP,ioos:station:wmo:42395:2,2017-05-02T04:20:00Z,26.4040,-90.7920,3.0,7.4,69.0,9.0, 
ADCP,ioos:station:wmo:42395:2,2017-05-02T04:40:00Z,26.4040,-90.7920,3.0,7.9,76.0,10.0, 
ADCP,ioos:station:wmo:42395:2,2017-05-02T05:00:00Z,26.4040,-90.7920,3.0,7.7,75.0,9.6, 
ADCP,ioos:station:wmo:42395:2,2017-05-02T05:20:00Z,26.4040,-90.7920,3.0,8.1,74.0,10.0, 
ADCP,ioos:station:wmo:42395:2,2017-05-02T05:40:00Z,26.4040,-90.7920,3.0,8.0,72.0,10.0, 
ADCP,ioos:station:wmo:42395:2,2017-05-02T06:00:00Z,26.4040,-90.7920,3.0,8.0,71.0,10.1, 
ADCP,ioos:station:wmo:42395:2,2017-05-02T06:20:00Z,26.4040,-90.7920,3.0,8.1,65.0,10.0, 
ADCP,ioos:station:wmo:42395:2,2017-05-02T06:40:00Z,26.4040,-90.7920,3.0,8.3,60.0,9.7, 
ADCP,ioos:station:wmo:42395:2,2017-05-02T07:20:00Z,26.4040,-90.7920,3.0,8.6,58.0,10.5, 
ADCP,ioos:station:wmo:42395:2,2017-05-02T07:40:00Z,26.4040,-90.7920,3.0,8.6,63.0,10.5, 
ADCP,ioos:station:wmo:42395:2,2017-05-02T08:20:00Z,26.4040,-90.7920,3.0,9.0,70.0,10.9, 
ADCP,ioos:station:wmo:42395:2,2017-05-02T08:40:00Z,26.4040,-90.7920,3.0,8.7,77.0,10.7, 
ADCP,ioos:station:wmo:42395:2,2017-05-02T09:20:00Z,26.4040,-90.7920,3.0,7.9,67.0,10.3, 
ADCP,ioos:station:wmo:42395:2,2017-05-02T09:40:00Z,26.4040,-90.7920,3.0,8.2,77.0,10.1, 
ADCP,ioos:station:wmo:42395:2,2017-05-02T10:20:00Z,26.4040,-90.7920,3.0,8.0,85.0,10.1, 
ADCP,ioos:station:wmo:42395:2,2017-05-02T10:40:00Z,26.4040,-90.7920,3.0,7.5,83.0,9.3, 
ADCP,ioos:station:wmo:42395:2,2017-05-02T11:20:00Z,26.4040,-90.7920,3.0,7.9,84.0,9.4, 
ADCP,ioos:station:wmo:42395:2,2017-05-02T11:40:00Z,26.4040,-90.7920,3.0,7.6,91.0,9.3, 
ADCP,ioos:station:wmo:42395:2,2017-05-02T12:00:00Z,26.4040,-90.7920,3.0,7.7,87.0,9.8, 
ADCP,ioos:station:wmo:42395:2,2017-05-02T12:20:00Z,26.4040,-90.7920,3.0,7.6,84.0,10.0, 
ADCP,ioos:station:wmo:42395:2,2017-05-02T12:40:00Z,26.4040,-90.7920,3.0,7.4,87.0,9.0, 
ADCP,ioos:station:wmo:42395:2,2017-05-02T13:00:00Z,26.4040,-90.7920,3.0,7.5,84.0,9.2, 
ADCP,ioos:station:wmo:42395:2,2017-05-02T13:20:00Z,26.4040,-90.7920,3.0,7.3,78.0,9.1, 
ADCP,ioos:station:wmo:42395:2,2017-05-02T13:40:00Z,26.4040,-90.7920,3.0,7.4,82.0,9.2, 
ADCP,ioos:station:wmo:42395:2,2017-05-02T14:00:00Z,26.4040,-90.7920,3.0,7.3,87.0,9.4, 
ADCP,ioos:station:wmo:42395:2,2017-05-02T14:20:00Z,26.4040,-90.7920,3.0,7.6,84.0,9.1, 
ADCP,ioos:station:wmo:42395:2,2017-05-02T14:40:00Z,26.4040,-90.7920,3.0,7.5,82.0,9.1, 
ADCP,ioos:station:wmo:42395:2,2017-05-02T15:00:00Z,26.4040,-90.7920,3.0,7.5,79.0,9.4, 
ADCP,ioos:station:wmo:42395:2,2017-05-02T15:20:00Z,26.4040,-90.7920,3.0,8.0,72.0,9.8, 
ADCP,ioos:station:wmo:42395:2,2017-05-02T15:40:00Z,26.4040,-90.7920,3.0,8.0,81.0,9.7, 
ADCP,ioos:station:wmo:42395:2,2017-05-02T16:00:00Z,26.4040,-90.7920,3.0,8.2,77.0,10.1, 
ADCP,ioos:station:wmo:42395:2,2017-05-02T16:20:00Z,26.4040,-90.7920,3.0,8.3,78.0,10.3, 
ADCP,ioos:station:wmo:42395:2,2017-05-02T16:40:00Z,26.4040,-90.7920,3.0,8.6,79.0,10.5, 
ADCP,ioos:station:wmo:42395:2,2017-05-02T17:00:00Z,26.4040,-90.7920,3.0,8.2,78.0,9.7, 
ADCP,ioos:station:wmo:42395:2,2017-05-02T17:20:00Z,26.4040,-90.7920,3.0,8.2,86.0,10.0, 
ADCP,ioos:station:wmo:42395:2,2017-05-02T17:40:00Z,26.4040,-90.7920,3.0,8.1,92.0,9.8, 
ADCP,ioos:station:wmo:42395:2,2017-05-02T18:00:00Z,26.4040,-90.7920,3.0,8.3,94.0,10.2, 
ADCP,ioos:station:wmo:42395:2,2017-05-02T18:20:00Z,26.4040,-90.7920,3.0,8.7,91.0,10.8, 
ADCP,ioos:station:wmo:42395:2,2017-05-02T18:40:00Z,26.4040,-90.7920,3.0,8.6,92.0,99.0, 
ADCP,ioos:station:wmo:42395:2,2017-05-02T19:00:00Z,26.4040,-90.7920,3.0,8.5,94.0,10.4, 
ADCP,ioos:station:wmo:42395:2,2017-05-02T19:20:00Z,26.4040,-90.7920,3.0,8.0,90.0,9.8, 
ADCP,ioos:station:wmo:42395:2,2017-05-02T19:40:00Z,26.4040,-90.7920,3.0,8.4,93.0,10.4, 
ADCP,ioos:station:wmo:42395:2,2017-05-02T20:20:00Z,26.4040,-90.7920,3.0,7.6,91.0,9.5, 
ADCP,ioos:station:wmo:42395:2,2017-05-02T20:40:00Z,26.4040,-90.7920,3.0,7.3,91.0,9.2, 
ADCP,ioos:station:wmo:42395:2,2017-05-02T21:00:00Z,26.4040,-90.7920,3.0,7.7,86.0,9.3, 
ADCP,ioos:station:wmo:42395:2,2017-05-02T21:20:00Z,26.4040,-90.7920,3.0,7.5,89.0,9.2, 
ADCP,ioos:station:wmo:42395:2,2017-05-02T21:40:00Z,26.4040,-90.7920,3.0,7.5,91.0,9.3, 
ADCP,ioos:station:wmo:42395:2,2017-05-02T22:00:00Z,26.4040,-90.7920,3.0,7.7,95.0,9.3, 
ADCP,ioos:station:wmo:42395:2,2017-05-02T22:20:00Z,26.4040,-90.7920,3.0,7.3,96.0,9.2, 
ADCP,ioos:station:wmo:42395:2,2017-05-02T22:40:00Z,26.4040,-90.7920,3.0,7.6,96.0,9.6, 
ADCP,ioos:station:wmo:42395:2,2017-05-02T23:00:00Z,26.4040,-90.7920,3.0,8.3,103.0,10.0, 
ADCP,ioos:station:wmo:42395:2,2017-05-02T23:20:00Z,26.4040,-90.7920,3.0,7.5,101.0,9.6, 
ADCP,ioos:station:wmo:42395:2,2017-05-02T23:40:00Z,26.4040,-90.7920,3.0,8.3,101.0,10.0, 
ADCP,ioos:station:wmo:42395:2,2017-05-03T00:00:00Z,26.4040,-90.7920,3.0,8.3,98.0,10.2, 
ADCP,ioos:station:wmo:42395:2,2017-05-03T00:20:00Z,26.4040,-90.7920,3.0,8.8,100.0,10.5, 
ADCP,ioos:station:wmo:42395:2,2017-05-03T00:40:00Z,26.4040,-90.7920,3.0,8.6,102.0,10.6, 
ADCP,ioos:station:wmo:42395:2,2017-05-03T01:00:00Z,26.4040,-90.7920,3.0,9.0,103.0,10.8, 
ADCP,ioos:station:wmo:42395:2,2017-05-03T01:20:00Z,26.4040,-90.7920,3.0,9.6,108.0,11.6, 
ADCP,ioos:station:wmo:42395:2,2017-05-03T01:40:00Z,26.4040,-90.7920,3.0,9.6,105.0,12.2, 
ADCP,ioos:station:wmo:42395:2,2017-05-03T02:00:00Z,26.4040,-90.7920,3.0,8.8,101.0,10.6, 
ADCP,ioos:station:wmo:42395:2,2017-05-03T02:20:00Z,26.4040,-90.7920,3.0,9.4,101.0,11.3, 
ADCP,ioos:station:wmo:42395:2,2017-05-03T02:40:00Z,26.4040,-90.7920,3.0,9.3,103.0,11.6, 
ADCP,ioos:station:wmo:42395:2,2017-05-03T03:20:00Z,26.4040,-90.7920,3.0,8.8,105.0,10.8, 
ADCP,ioos:station:wmo:42395:2,2017-05-03T03:40:00Z,26.4040,-90.7920,3.0,8.8,110.0,10.6, 
ADCP,ioos:station:wmo:42395:2,2017-05-03T04:00:00Z,26.4040,-90.7920,3.0,8.8,110.0,10.6, 
ADCP,ioos:station:wmo:42395:2,2017-05-03T04:20:00Z,26.4040,-90.7920,3.0,8.6,115.0,10.6, 
ADCP,ioos:station:wmo:42395:2,2017-05-03T04:40:00Z,26.4040,-90.7920,3.0,8.5,113.0,10.5, 
ADCP,ioos:station:wmo:42395:2,2017-05-03T05:00:00Z,26.4040,-90.7920,3.0,9.1,115.0,10.9, 
ADCP,ioos:station:wmo:42395:2,2017-05-03T05:20:00Z,26.4040,-90.7920,3.0,9.2,120.0,11.1, 
ADCP,ioos:station:wmo:42395:2,2017-05-03T05:40:00Z,26.4040,-90.7920,3.0,8.4,118.0,10.8, 
ADCP,ioos:station:wmo:42395:2,2017-05-03T06:00:00Z,26.4040,-90.7920,3.0,8.6,124.0,10.5, 
ADCP,ioos:station:wmo:42395:2,2017-05-03T06:20:00Z,26.4040,-90.7920,3.0,8.1,123.0,10.1, 
ADCP,ioos:station:wmo:42395:2,2017-05-03T06:40:00Z,26.4040,-90.7920,3.0,8.2,127.0,10.2, 
ADCP,ioos:station:wmo:42395:2,2017-05-03T07:00:00Z,26.4040,-90.7920,3.0,8.4,124.0,10.8, 
ADCP,ioos:station:wmo:42395:2,2017-05-03T07:20:00Z,26.4040,-90.7920,3.0,7.5,128.0,9.4, 
ADCP,ioos:station:wmo:42395:2,2017-05-03T07:40:00Z,26.4040,-90.7920,3.0,8.7,123.0,10.5, 
ADCP,ioos:station:wmo:42395:2,2017-05-03T08:00:00Z,26.4040,-90.7920,3.0,7.9,123.0,10.3, 
ADCP,ioos:station:wmo:42395:2,2017-05-03T08:20:00Z,26.4040,-90.7920,3.0,8.3,124.0,10.0, 
ADCP,ioos:station:wmo:42395:2,2017-05-03T08:40:00Z,26.4040,-90.7920,3.0,9.0,128.0,11.3, 
ADCP,ioos:station:wmo:42395:2,2017-05-03T09:00:00Z,26.4040,-90.7920,3.0,9.2,127.0,11.6, 
ADCP,ioos:station:wmo:42395:2,2017-05-03T09:20:00Z,26.4040,-90.7920,3.0,9.4,131.0,11.3, 
ADCP,ioos:station:wmo:42395:2,2017-05-03T09:40:00Z,26.4040,-90.7920,3.0,9.1,129.0,11.1, 
ADCP,ioos:station:wmo:42395:2,2017-05-03T10:00:00Z,26.4040,-90.7920,3.0,8.7,129.0,10.8, 
ADCP,ioos:station:wmo:42395:2,2017-05-03T10:20:00Z,26.4040,-90.7920,3.0,8.4,130.0,10.1, 
ADCP,ioos:station:wmo:42395:2,2017-05-03T10:40:00Z,26.4040,-90.7920,3.0,8.5,131.0,10.5, 
ADCP,ioos:station:wmo:42395:2,2017-05-03T11:00:00Z,26.4040,-90.7920,3.0,8.2,132.0,10.5, 
ADCP,ioos:station:wmo:42395:2,2017-05-03T11:20:00Z,26.4040,-90.7920,3.0,7.9,131.0,9.6, 
ADCP,ioos:station:wmo:42395:2,2017-05-03T11:40:00Z,26.4040,-90.7920,3.0,7.7,131.0,9.5, 
ADCP,ioos:station:wmo:42395:2,2017-05-03T12:20:00Z,26.4040,-90.7920,3.0,8.0,137.0,9.7, 
ADCP,ioos:station:wmo:42395:2,2017-05-03T12:40:00Z,26.4040,-90.7920,3.0,7.9,136.0,9.7, 
ADCP,ioos:station:wmo:42395:2,2017-05-03T13:20:00Z,26.4040,-90.7920,3.0,7.3,136.0,9.0, 
ADCP,ioos:station:wmo:42395:2,2017-05-03T13:40:00Z,26.4040,-90.7920,3.0,8.2,136.0,10.0, 
ADCP,ioos:station:wmo:42395:2,2017-05-03T14:20:00Z,26.4040,-90.7920,3.0,8.8,135.0,10.5, 
ADCP,ioos:station:wmo:42395:2,2017-05-03T14:40:00Z,26.4040,-90.7920,3.0,8.4,135.0,10.5, 
ADCP,ioos:station:wmo:42395:2,2017-05-03T15:20:00Z,26.4040,-90.7920,3.0,8.7,145.0,11.5, 
ADCP,ioos:station:wmo:42395:2,2017-05-03T15:40:00Z,26.4040,-90.7920,3.0,7.9,143.0,10.1, 
ADCP,ioos:station:wmo:42395:2,2017-05-03T16:20:00Z,26.4040,-90.7920,3.0,8.3,130.0,10.0, 
ADCP,ioos:station:wmo:42395:2,2017-05-03T16:40:00Z,26.4040,-90.7920,3.0,7.7,140.0,9.5, 
ADCP,ioos:station:wmo:42395:2,2017-05-03T17:00:00Z,26.4040,-90.7920,3.0,8.0,141.0,9.7, 
ADCP,ioos:station:wmo:42395:2,2017-05-03T17:20:00Z,26.4040,-90.7920,3.0,7.9,140.0,9.8, 
ADCP,ioos:station:wmo:42395:2,2017-05-03T17:40:00Z,26.4040,-90.7920,3.0,8.6,141.0,10.3, 
ADCP,ioos:station:wmo:42395:2,2017-05-03T18:00:00Z,26.4040,-90.7920,3.0,8.0,139.0,9.8, 
ADCP,ioos:station:wmo:42395:2,2017-05-03T18:20:00Z,26.4040,-90.7920,3.0,8.4,137.0,10.0, 
ADCP,ioos:station:wmo:42395:2,2017-05-03T18:40:00Z,26.4040,-90.7920,3.0,8.3,134.0,10.1, 
ADCP,ioos:station:wmo:42395:2,2017-05-03T19:00:00Z,26.4040,-90.7920,3.0,9.0,132.0,11.1, 
ADCP,ioos:station:wmo:42395:2,2017-05-03T19:20:00Z,26.4040,-90.7920,3.0,8.4,134.0,10.4, 
ADCP,ioos:station:wmo:42395:2,2017-05-03T19:40:00Z,26.4040,-90.7920,3.0,8.8,138.0,10.5, 
ADCP,ioos:station:wmo:42395:2,2017-05-03T20:00:00Z,26.4040,-90.7920,3.0,9.2,136.0,11.4, 
ADCP,ioos:station:wmo:42395:2,2017-05-03T20:20:00Z,26.4040,-90.7920,3.0,9.0,134.0,10.8, 
ADCP,ioos:station:wmo:42395:2,2017-05-03T20:40:00Z,26.4040,-90.7920,3.0,9.1,133.0,11.2, 
ADCP,ioos:station:wmo:42395:2,2017-05-03T21:20:00Z,26.4040,-90.7920,3.0,8.0,140.0,9.7, 
ADCP,ioos:station:wmo:42395:2,2017-05-03T21:40:00Z,26.4040,-90.7920,3.0,7.6,142.0,10.0, 
ADCP,ioos:station:wmo:42395:2,2017-05-03T22:20:00Z,26.4040,-90.7920,3.0,7.6,146.0,9.4, 
ADCP,ioos:station:wmo:42395:2,2017-05-03T22:40:00Z,26.4040,-90.7920,3.0,8.0,148.0,9.4, 
ADCP,ioos:station:wmo:42395:2,2017-05-03T23:20:00Z,26.4040,-90.7920,3.0,7.9,144.0,9.3, 
ADCP,ioos:station:wmo:42395:2,2017-05-03T23:40:00Z,26.4040,-90.7920,3.0,7.4,143.0,9.0, 
ADCP,ioos:station:wmo:42395:2,2017-05-04T00:00:00Z,26.4040,-90.7920,3.0,7.3,141.0,9.5, 
ADCP,ioos:station:wmo:42395:2,2017-05-04T00:20:00Z,26.4040,-90.7920,3.0,6.9,145.0,8.2, 
ADCP,ioos:station:wmo:42395:2,2017-05-04T00:40:00Z,26.4040,-90.7920,3.0,6.9,147.0,8.3, 
ADCP,ioos:station:wmo:42395:2,2017-05-04T01:00:00Z,26.4040,-90.7920,3.0,7.1,147.0,8.8, 
ADCP,ioos:station:wmo:42395:2,2017-05-04T01:20:00Z,26.4040,-90.7920,3.0,7.3,144.0,9.0, 
ADCP,ioos:station:wmo:42395:2,2017-05-04T01:40:00Z,26.4040,-90.7920,3.0,7.7,141.0,9.3, 
ADCP,ioos:station:wmo:42395:2,2017-05-04T02:00:00Z,26.4040,-90.7920,3.0,7.9,146.0,9.3, 
ADCP,ioos:station:wmo:42395:2,2017-05-04T02:20:00Z,26.4040,-90.7920,3.0,7.9,147.0,9.5, 
ADCP,ioos:station:wmo:42395:2,2017-05-04T02:40:00Z,26.4040,-90.7920,3.0,8.0,147.0,10.5, 
ADCP,ioos:station:wmo:42395:2,2017-05-04T03:20:00Z,26.4040,-90.7920,3.0,8.2,151.0,10.3, 
ADCP,ioos:station:wmo:42395:2,2017-05-04T03:40:00Z,26.4040,-90.7920,3.0,8.5,153.0,10.0, 
ADCP,ioos:station:wmo:42395:2,2017-05-04T04:20:00Z,26.4040,-90.7920,3.0,9.0,149.0,11.2, 
ADCP,ioos:station:wmo:42395:2,2017-05-04T05:00:00Z,26.4040,-90.7920,3.0,8.8,148.0,10.5, 
ADCP,ioos:station:wmo:42395:2,2017-05-04T05:20:00Z,26.4040,-90.7920,3.0,9.4,151.0,11.5, 
ADCP,ioos:station:wmo:42395:2,2017-05-04T05:40:00Z,26.4040,-90.7920,3.0,10.1,154.0,12.9, 
ADCP,ioos:station:wmo:42395:2,2017-05-04T06:00:00Z,26.4040,-90.7920,3.0,10.7,158.0,12.9, 
ADCP,ioos:station:wmo:42395:2,2017-05-04T06:20:00Z,26.4040,-90.7920,3.0,10.1,161.0,12.6, 
ADCP,ioos:station:wmo:42395:2,2017-05-04T06:40:00Z,26.4040,-90.7920,3.0,7.7,158.0,10.1, 
ADCP,ioos:station:wmo:42395:2,2017-05-04T07:00:00Z,26.4040,-90.7920,3.0,6.9,161.0,8.6, 
ADCP,ioos:station:wmo:42395:2,2017-05-04T07:20:00Z,26.4040,-90.7920,3.0,8.0,161.0,10.1, 
ADCP,ioos:station:wmo:42395:2,2017-05-04T07:40:00Z,26.4040,-90.7920,3.0,5.3,155.0,7.2, 
ADCP,ioos:station:wmo:42395:2,2017-05-04T08:20:00Z,26.4040,-90.7920,3.0,4.5,183.0,6.4, 
ADCP,ioos:station:wmo:42395:2,2017-05-04T08:40:00Z,26.4040,-90.7920,3.0,3.1,167.0,4.3, 
ADCP,ioos:station:wmo:42395:2,2017-05-04T09:20:00Z,26.4040,-90.7920,3.0,2.2,245.0,2.9, 
ADCP,ioos:station:wmo:42395:2,2017-05-04T09:40:00Z,26.4040,-90.7920,3.0,1.9,288.0,2.9, 
ADCP,ioos:station:wmo:42395:2,2017-05-04T10:00:00Z,26.4040,-90.7920,3.0,2.1,301.0,3.4, 
ADCP,ioos:station:wmo:42395:2,2017-05-04T10:20:00Z,26.4040,-90.7920,3.0,2.8,336.0,4.1, 
ADCP,ioos:station:wmo:42395:2,2017-05-04T10:40:00Z,26.4040,-90.7920,3.0,4.0,348.0,5.2, 
ADCP,ioos:station:wmo:42395:2,2017-05-04T11:00:00Z,26.4040,-90.7920,3.0,10.8,11.0,17.4, 
ADCP,ioos:station:wmo:42395:2,2017-05-04T11:20:00Z,26.4040,-90.7920,3.0,14.4,26.0,17.9, 
ADCP,ioos:station:wmo:42395:2,2017-05-04T11:40:00Z,26.4040,-90.7920,3.0,15.8,25.0,19.8, 
ADCP,ioos:station:wmo:42395:2,2017-05-04T12:00:00Z,26.4040,-90.7920,3.0,22.1,355.0,31.0, 
ADCP,ioos:station:wmo:42395:2,2017-05-04T12:20:00Z,26.4040,-90.7920,3.0,16.6,330.0,22.9, 
ADCP,ioos:station:wmo:42395:2,2017-05-04T12:40:00Z,26.4040,-90.7920,3.0,12.6,337.0,16.4, 
ADCP,ioos:station:wmo:42395:2,2017-05-04T13:20:00Z,26.4040,-90.7920,3.0,9.5,2.0,11.8, 
ADCP,ioos:station:wmo:42395:2,2017-05-04T14:00:00Z,26.4040,-90.7920,3.0,8.0,46.0,10.3, 
ADCP,ioos:station:wmo:42395:2,2017-05-04T14:20:00Z,26.4040,-90.7920,3.0,5.2,63.0,6.9, 
ADCP,ioos:station:wmo:42395:2,2017-05-04T14:40:00Z,26.4040,-90.7920,3.0,5.4,41.0,7.3, 
ADCP,ioos:station:wmo:42395:2,2017-05-04T15:00:00Z,26.4040,-90.7920,3.0,5.3,72.0,7.3, 
ADCP,ioos:station:wmo:42395:2,2017-05-04T15:20:00Z,26.4040,-90.7920,3.0,5.4,75.0,7.6, 
ADCP,ioos:station:wmo:42395:2,2017-05-04T15:40:00Z,26.4040,-90.7920,3.0,4.1,72.0,6.2, 
ADCP,ioos:station:wmo:42395:2,2017-05-04T16:20:00Z,26.4040,-90.7920,3.0,4.0,79.0,5.7, 
ADCP,ioos:station:wmo:42395:2,2017-05-04T16:40:00Z,26.4040,-90.7920,3.0,3.3,82.0,5.1, 
ADCP,ioos:station:wmo:42395:2,2017-05-04T17:20:00Z,26.4040,-90.7920,3.0,2.4,141.0,4.1, 
ADCP,ioos:station:wmo:42395:2,2017-05-04T17:40:00Z,26.4040,-90.7920,3.0,2.2,197.0,4.1, 
ADCP,ioos:station:wmo:42395:2,2017-05-04T18:00:00Z,26.4040,-90.7920,3.0,3.4,213.0,5.2, 
ADCP,ioos:station:wmo:42395:2,2017-05-04T18:20:00Z,26.4040,-90.7920,3.0,3.5,259.0,5.7, 
ADCP,ioos:station:wmo:42395:2,2017-05-04T18:40:00Z,26.4040,-90.7920,3.0,5.0,246.0,7.9, 
ADCP,ioos:station:wmo:42395:2,2017-05-04T19:00:00Z,26.4040,-90.7920,3.0,4.5,248.0,6.9, 
ADCP,ioos:station:wmo:42395:2,2017-05-04T19:20:00Z,26.4040,-90.7920,3.0,7.1,281.0,9.4, 
ADCP,ioos:station:wmo:42395:2,2017-05-04T19:40:00Z,26.4040,-90.7920,3.0,8.2,293.0,10.6, 
ADCP,ioos:station:wmo:42395:2,2017-05-04T20:20:00Z,26.4040,-90.7920,3.0,10.7,295.0,13.4, 
ADCP,ioos:station:wmo:42395:2,2017-05-04T20:40:00Z,26.4040,-90.7920,3.0,10.8,288.0,13.5, 
ADCP,ioos:station:wmo:42395:2,2017-05-04T21:20:00Z,26.4040,-90.7920,3.0,11.3,290.0,14.7, 
ADCP,ioos:station:wmo:42395:2,2017-05-04T21:40:00Z,26.4040,-90.7920,3.0,11.3,295.0,14.7, 
ADCP,ioos:station:wmo:42395:2,2017-05-04T22:00:00Z,26.4040,-90.7920,3.0,11.2,297.0,13.8, 
ADCP,ioos:station:wmo:42395:2,2017-05-04T22:20:00Z,26.4040,-90.7920,3.0,12.1,301.0,15.0, 
ADCP,ioos:station:wmo:42395:2,2017-05-04T22:40:00Z,26.4040,-90.7920,3.0,11.3,295.0,14.4, 
ADCP,ioos:station:wmo:42395:2,2017-05-04T23:20:00Z,26.4040,-90.7920,3.0,11.2,295.0,14.2, 
ADCP,ioos:station:wmo:42395:2,2017-05-04T23:40:00Z,26.4040,-90.7920,3.0,11.2,298.0,13.7, 
ADCP,ioos:station:wmo:42395:2,2017-05-05T00:20:00Z,26.4040,-90.7920,3.0,11.5,302.0,14.9, 
ADCP,ioos:station:wmo:42395:2,2017-05-05T00:40:00Z,26.4040,-90.7920,3.0,11.4,304.0,14.3, 
ADCP,ioos:station:wmo:42395:2,2017-05-05T01:00:00Z,26.4040,-90.7920,3.0,11.6,300.0,14.3, 
ADCP,ioos:station:wmo:42395:2,2017-05-05T01:20:00Z,26.4040,-90.7920,3.0,12.9,309.0,15.9, 
ADCP,ioos:station:wmo:42395:2,2017-05-05T01:40:00Z,26.4040,-90.7920,3.0,12.6,309.0,15.5, 
ADCP,ioos:station:wmo:42395:2,2017-05-05T02:20:00Z,26.4040,-90.7920,3.0,11.9,311.0,14.9, 
ADCP,ioos:station:wmo:42395:2,2017-05-05T02:40:00Z,26.4040,-90.7920,3.0,11.6,314.0,15.3, 
ADCP,ioos:station:wmo:42395:2,2017-05-05T03:20:00Z,26.4040,-90.7920,3.0,12.5,316.0,17.7, 
ADCP,ioos:station:wmo:42395:2,2017-05-05T03:40:00Z,26.4040,-90.7920,3.0,12.4,318.0,16.4, 
ADCP,ioos:station:wmo:42395:2,2017-05-05T04:00:00Z,26.4040,-90.7920,3.0,11.8,317.0,15.5, 
ADCP,ioos:station:wmo:42395:2,2017-05-05T04:20:00Z,26.4040,-90.7920,3.0,12.4,326.0,15.8, 
ADCP,ioos:station:wmo:42395:2,2017-05-05T04:40:00Z,26.4040,-90.7920,3.0,13.3,331.0,16.3, 
ADCP,ioos:station:wmo:42395:2,2017-05-05T05:20:00Z,26.4040,-90.7920,3.0,12.2,329.0,16.6, 
ADCP,ioos:station:wmo:42395:2,2017-05-05T05:40:00Z,26.4040,-90.7920,3.0,11.7,331.0,15.1, 
ADCP,ioos:station:wmo:42395:2,2017-05-05T06:20:00Z,26.4040,-90.7920,3.0,11.4,334.0,14.7, 
ADCP,ioos:station:wmo:42395:2,2017-05-05T06:40:00Z,26.4040,-90.7920,3.0,12.2,340.0,15.4, 
ADCP,ioos:station:wmo:42395:2,2017-05-05T07:00:00Z,26.4040,-90.7920,3.0,11.7,342.0,15.4, 
ADCP,ioos:station:wmo:42395:2,2017-05-05T07:20:00Z,26.4040,-90.7920,3.0,10.6,352.0,14.5, 
ADCP,ioos:station:wmo:42395:2,2017-05-05T07:40:00Z,26.4040,-90.7920,3.0,10.6,345.0,12.9, 
ADCP,ioos:station:wmo:42395:2,2017-05-05T08:20:00Z,26.4040,-90.7920,3.0,9.6,337.0,12.2, 
ADCP,ioos:station:wmo:42395:2,2017-05-05T09:00:00Z,26.4040,-90.7920,3.0,9.3,339.0,12.9, 
ADCP,ioos:station:wmo:42395:2,2017-05-05T09:20:00Z,26.4040,-90.7920,3.0,9.2,329.0,12.1, 
ADCP,ioos:station:wmo:42395:2,2017-05-05T09:40:00Z,26.4040,-90.7920,3.0,8.6,336.0,10.8, 
ADCP,ioos:station:wmo:42395:2,2017-05-05T10:00:00Z,26.4040,-90.7920,3.0,8.4,333.0,10.7, 
ADCP,ioos:station:wmo:42395:2,2017-05-05T10:20:00Z,26.4040,-90.7920,3.0,8.6,322.0,12.2, 